DECAYED

STARLINK-2124, 47402 (Decayed)

Orbit data source: Space-Track

STARLINK-2124, 47402 was a payload satellite owned by SpaceX/Seattle (US) in LEO that was launched on Wed, 20 Jan 2021 UTC via an FALCON 9 launch vehicle from the Air Force Eastern Test Range (AFETR). Payload-class satellites include a variety of spacecraft equipped with specific instruments for various scientific and technological missions. These include communications satellites like Starlink; space stations such as the ISS; scientific satellites like the Hubble; Earth observation satellites from companies like Planet Labs, Umbra, and HawkEye 360; GPS; miniature CubeSats for education and research; and military/defense satellites.

Not visible in the next 10 days
Identifier
47402, 2021-005BF
Orbit
Decayed
Country
Flag of USUS
Related business
Manufacturer
SpaceX/Seattle
Mission
Decayed Commercial Communications
Bus & Motor
STARLINK, Unknown motor
Mass
260 kg wet, ~248 kg dry
Launch date (UTC)
2021-01-20 (5 years ago)
Launch vehicle
FALCON 9
Launch site
Air Force Eastern Test Range (AFETR)
Object type
Payload
Rocket body
Debris
Shape & HBR
Box + 1 Pan, 10.1 m
Radar Cross Section
13.562 m², Large (>1 m²)

Expand to show TLE details & history
Last TLE update: 1 year ago

TLE from 1 year ago
0 STARLINK-2124
1 47402U 21005BF  25013.23215516  .16823427  12531-4  58872-3 0  9993
2 47402  53.0318  95.0875 0003093 328.6102 136.8045 16.44464337221037
Epoch: 2025-01-13T05:34Z
TLE epoch observation values (Epoch: 2025-01-13T05:34:18.205Z)
Latitude
50.52277°
Longitude
13.24911°
Altitude
161.302 km
Speed
7.815 km/s
True Right ascension
13h 59m 07s
True Declination
50° 20' 18"
Sunlit
Object was in full shadow at epoch
Visualization orbit readout
Latitude
Unknown
Longitude
Unknown
Altitude
Unknown
Speed
Unknown
Apparent Right ascension
Unknown
Apparent Declination
Unknown
Sunlit
N/A
Visualization observer readout
Local Sidereal Time
21:27:19
Azimuth
Unknown
Elevation
Unknown
Doppler factor
Unknown
Orbital elements
Apogee altitude
156.264 km
Perigee altitude
152.224 km
Semi-major axis
6,532.381 km
Eccentricity
0.00031
Inclination
53.0318°
RAAN
95.0875°
Arg. of periapsis
328.6102°
True anomaly
136.82875°
Mean anomaly
136.8045°
Eccentric anomaly
136.81663°
Mean motion
4.11089 °/min
Orbital period
87.57 mins
BSTAR
0.00058872
Loading maneuver chart data...
Computing Atmospheric mass density...
Loading historical data...
Loading historical data...
Loading historical data...
Loading historical data...
Loading historical data...
Loading historical data...
Loading historical data...

Documentation

Showing up to 5 results
|